N3PB Weather Reports


Display with metric or nautical units.
time (UTC)temp
F
wind
direction
speed
MPH
gust
MPH
rain 1hr
in
rain 24hr
in
rain mn
in
humidity
%
barometer
mb
20260506072612 58 0 0.0 0.0 0.00 0.00 0.00 70 1011.8
20260506072112 58 0 0.0 0.0 0.00 0.00 0.00 70 1011.7
20260506071609 58 0 0.0 0.0 0.00 0.00 0.00 69 1011.8
20260506071112 58 234 0.0 0.0 0.00 0.00 0.00 69 1011.8
20260506070609 58 234 0.0 0.0 0.00 0.00 0.00 69 1011.8
20260506070112 58 234 0.0 0.0 0.00 0.00 0.00 69 1012.0
20260506062115 59 232 0.0 0.0 0.00 0.00 0.00 68 1012.4
20260506061612 59 232 0.0 0.0 0.00 0.00 0.00 68 1012.3
20260506061109 59 232 0.0 0.0 0.00 0.00 0.00 68 1012.4
20260506060612 59 232 0.0 0.0 0.00 0.00 0.00 68 1012.4
20260506060108 59 232 0.0 0.0 0.00 0.00 0.00 67 1012.6
20260506051108 60 232 0.0 0.0 0.00 0.00 0.00 65 1013.3
20260506050612 60 232 0.0 0.0 0.00 0.00 0.00 64 1013.3
20260506050115 60 232 0.0 0.0 0.00 0.00 0.00 64 1013.2
20260506045112 60 232 0.0 0.0 0.00 0.00 0.00 64 1013.4
20260506044609 60 232 0.0 0.0 0.00 0.00 0.00 63 1013.5
20260506044112 60 232 0.0 0.0 0.00 0.00 0.00 64 1013.6
20260506043612 60 232 0.0 0.0 0.00 0.00 0.00 63 1013.7
20260506043109 60 232 0.0 0.0 0.00 0.00 0.00 63 1013.6
20260506042616 60 232 0.0 0.0 0.00 0.00 0.00 63 1013.6
20260506042109 60 232 0.0 0.0 0.00 0.00 0.00 63 1013.6
20260506041614 60 232 0.0 0.0 0.00 0.00 0.00 61 1013.6
20260506041118 60 232 0.0 0.0 0.00 0.00 0.00 61 1013.7
20260506040618 61 232 0.0 0.0 0.00 0.00 0.00 61 1013.9
20260506040109 61 232 0.0 0.0 0.00 0.00 0.00 60 1013.8
20260506035608 61 232 0.0 0.0 0.00 0.00 0.00 60 1013.8
20260506035109 61 232 0.0 0.0 0.00 0.00 0.00 59 1013.9
20260506034608 62 232 0.0 0.0 0.00 0.00 0.00 59 1013.9
20260506034118 62 232 0.0 0.0 0.00 0.00 0.00 58 1013.9
20260506033611 62 232 0.0 0.0 0.00 0.00 0.00 58 1014.0
20260506033109 62 232 0.0 0.0 0.00 0.00 0.00 56 1014.0
20260506032612 62 232 0.0 0.0 0.00 0.00 0.00 56 1013.9
20260506032109 63 232 0.0 0.0 0.00 0.00 0.00 56 1014.0
20260506031608 63 232 0.0 0.0 0.00 0.00 0.00 55 1013.9
20260506031112 63 232 0.0 0.0 0.00 0.00 0.00 55 1014.1
20260506030614 63 232 0.0 0.0 0.00 0.00 0.00 54 1014.1
20260506030112 63 246 0.0 0.0 0.00 0.00 0.00 54 1014.2
20260506025609 63 244 0.0 0.0 0.00 0.00 0.00 54 1014.2
20260506025109 64 244 0.0 0.0 0.00 0.00 0.00 54 1014.3
20260506024611 64 244 0.0 0.0 0.00 0.00 0.00 54 1014.3
20260506024109 64 244 0.0 0.0 0.00 0.00 0.00 53 1014.2
20260506023618 64 244 0.0 0.0 0.00 0.00 0.00 53 1014.3
20260506023114 64 267 0.0 0.0 0.00 0.00 0.00 53 1014.3
20260506022609 64 267 0.0 0.0 0.00 0.00 0.00 53 1014.3
20260506022112 64 268 0.0 0.0 0.00 0.00 0.00 52 1014.4
20260506021608 64 267 0.0 0.0 0.00 0.00 0.00 52 1014.5
20260506021114 65 269 0.0 0.0 0.00 0.00 0.00 52 1014.4
20260506020608 65 269 0.0 0.0 0.00 0.00 0.00 52 1014.4
20260506020109 65 267 0.0 0.0 0.00 0.00 0.00 52 1014.3
20260506015614 65 288 0.0 0.0 0.00 0.00 0.00 51 1014.4
20260506015109 65 291 0.0 0.0 0.00 0.00 0.00 51 1014.4
20260506014611 65 271 0.0 0.0 0.00 0.00 0.00 52 1014.4
20260506014109 65 350 0.0 0.0 0.00 0.00 0.00 51 1014.4
20260506013608 65 319 0.0 0.0 0.00 0.00 0.00 51 1014.4
20260506013111 65 280 0.0 0.0 0.00 0.00 0.00 51 1014.4
20260506012609 65 279 0.0 0.0 0.00 0.00 0.00 50 1014.4
20260506012111 66 281 0.0 0.0 0.00 0.00 0.00 50 1014.4
20260506011608 66 281 0.0 0.0 0.00 0.00 0.00 50 1014.3
20260506011111 66 288 0.0 0.0 0.00 0.00 0.00 49 1014.3
20260506010609 66 281 0.0 0.0 0.00 0.00 0.00 49 1014.2
20260506010108 66 24 0.0 0.0 0.00 0.00 0.00 49 1014.3
20260506005608 66 220 0.0 0.0 0.00 0.00 0.00 49 1014.2
20260506005112 67 297 0.0 0.0 0.00 0.00 0.00 49 1014.2
20260506004608 67 191 0.0 0.0 0.00 0.00 0.00 48 1014.1
20260506004109 67 240 0.0 0.0 0.00 0.00 0.00 48 1014.2
20260506003615 67 282 0.0 0.0 0.00 0.00 0.00 47 1014.1
20260506003115 67 313 0.0 0.0 0.00 0.00 0.00 48 1014.0
20260506002611 67 309 0.0 0.0 0.00 0.00 0.00 48 1013.9
20260506002115 67 248 0.0 0.0 0.00 0.00 0.00 47 1013.9
20260506001614 68 252 0.0 0.0 0.00 0.00 0.00 46 1013.8
20260506001108 68 313 0.0 0.0 0.00 0.00 0.00 46 1013.9
20260506000612 68 280 0.0 0.0 0.00 0.00 0.00 46 1013.8
20260506000109 68 269 0.0 0.0 0.00 0.00 0.00 46 1013.7
20260505235611 68 227 0.0 0.0 0.00 0.00 0.00 46 1013.7
20260505235108 69 316 0.0 0.0 0.00 0.00 0.00 46 1013.7
20260505234609 69 295 0.0 0.0 0.00 0.00 0.00 46 1013.7
20260505234111 69 225 0.0 0.0 0.00 0.00 0.00 46 1013.6
20260505233608 69 312 0.0 0.0 0.00 0.00 0.00 46 1013.6
20260505233117 70 311 0.0 0.0 0.00 0.00 0.00 45 1013.4
20260505232611 70 15 0.0 0.0 0.00 0.00 0.00 45 1013.3
20260505232111 70 290 0.0 0.0 0.00 0.00 0.00 46 1013.2
20260505231608 70 290 0.0 0.0 0.00 0.00 0.00 44 1013.1
20260505231108 71 277 0.0 0.0 0.00 0.00 0.00 44 1013.0
20260505230612 71 283 0.0 0.0 0.00 0.00 0.00 43 1013.0
20260505230111 71 342 0.0 0.0 0.00 0.00 0.00 43 1013.0
20260505225608 72 26 0.0 0.0 0.00 0.00 0.00 44 1012.9
20260505225111 72 27 0.0 0.0 0.00 0.00 0.00 44 1012.8
20260505224609 72 48 0.0 0.0 0.00 0.00 0.00 44 1012.8
20260505224111 72 22 0.0 0.0 0.00 0.00 0.00 43 1012.8
20260505223608 72 326 0.0 0.0 0.00 0.00 0.00 42 1012.9
20260505223108 73 297 0.0 0.0 0.00 0.00 0.00 42 1013.0
20260505222614 73 355 0.0 0.0 0.00 0.00 0.00 42 1013.0
20260505222117 73 339 0.0 0.0 0.00 0.00 0.00 42 1013.0
20260505221608 73 9 0.0 0.0 0.00 0.00 0.00 41 1012.9
20260505221111 73 9 0.0 0.0 0.00 0.00 0.00 41 1012.9
20260505220608 73 22 0.0 0.0 0.00 0.00 0.00 41 1012.7
20260505220108 73 12 0.0 0.0 0.00 0.00 0.00 41 1012.8
20260505215617 73 306 0.0 0.0 0.00 0.00 0.00 40 1012.7
20260505215108 73 312 0.0 0.0 0.00 0.00 0.00 39 1012.7
20260505214614 74 338 0.0 0.0 0.00 0.00 0.00 37 1012.6
20260505214111 74 266 0.0 0.0 0.00 0.00 0.00 37 1012.7
20260505213611 75 283 0.0 0.0 0.00 0.00 0.00 37 1012.8
20260505213111 75 237 0.0 0.0 0.00 0.00 0.00 37 1012.4
20260505212612 75 304 0.0 0.0 0.00 0.00 0.00 37 1012.4
20260505212111 76 122 0.0 0.0 0.00 0.00 0.00 39 1012.3
20260505211614 75 22 0.0 0.0 0.00 0.00 0.00 39 1012.4
20260505211111 75 240 0.0 0.0 0.00 0.00 0.00 40 1012.6
20260505210608 75 44 0.0 0.0 0.00 0.00 0.00 38 1012.6
20260505210108 75 348 0.0 0.0 0.00 0.00 0.00 39 1012.6
20260505205608 74 294 0.0 0.0 0.00 0.00 0.00 43 1012.4
20260505205111 74 350 0.0 0.0 0.00 0.00 0.00 37 1012.5
20260505204608 75 284 0.0 0.0 0.00 0.00 0.00 36 1012.5
20260505204109 75 320 0.0 0.0 0.00 0.00 0.00 36 1012.7
20260505203611 75 9 0.0 0.0 0.00 0.00 0.00 37 1012.7
20260505203108 75 279 0.0 0.0 0.00 0.00 0.00 37 1012.6
20260505202608 75 318 0.0 0.0 0.00 0.00 0.00 38 1012.6
20260505202108 75 344 0.0 0.0 0.00 0.00 0.00 38 1012.5
20260505201611 75 288 0.0 0.0 0.00 0.00 0.00 37 1012.7
20260505201111 75 180 0.0 0.0 0.00 0.00 0.00 38 1012.7
20260505200614 76 269 0.0 0.0 0.00 0.00 0.00 38 1012.6
20260505200114 76 34 0.0 0.0 0.00 0.00 0.00 38 1012.8
20260505195608 76 46 0.0 0.0 0.00 0.00 0.00 41 1012.6
20260505195108 76 302 0.0 0.0 0.00 0.00 0.00 36 1012.7
20260505194608 77 286 0.0 0.0 0.00 0.00 0.00 38 1012.7
20260505194111 77 0 0.0 0.0 0.00 0.00 0.00 35 1012.8
20260505193608 77 42 0.0 0.0 0.00 0.00 0.00 38 1012.6
20260505193108 77 198 0.0 0.0 0.00 0.00 0.00 38 1012.6
20260505192608 78 283 0.0 0.0 0.00 0.00 0.00 38 1012.8
20260505192108 78 64 0.0 0.0 0.00 0.00 0.00 41 1012.7
20260505191608 78 200 0.0 0.0 0.00 0.00 0.00 39 1012.8
20260505191108 78 87 0.0 0.0 0.00 0.00 0.00 40 1012.8
20260505190611 78 31 0.0 0.0 0.00 0.00 0.00 42 1012.7
20260505190114 78 325 0.0 0.0 0.00 0.00 0.00 43 1012.8
20260505185608 78 344 0.0 0.0 0.00 0.00 0.00 37 1013.0
20260505185111 77 264 0.0 0.0 0.00 0.00 0.00 39 1012.9
20260505184608 77 71 0.0 0.0 0.00 0.00 0.00 39 1012.8
20260505184111 77 282 0.0 0.0 0.00 0.00 0.00 40 1012.9
20260505183611 77 255 0.0 0.0 0.00 0.00 0.00 37 1013.0
20260505183108 76 297 0.0 0.0 0.00 0.00 0.00 37 1012.9
20260505182617 76 275 0.0 0.0 0.00 0.00 0.00 41 1013.0
20260505182108 76 271 0.0 0.0 0.00 0.00 0.00 42 1013.2
20260505181614 75 244 0.0 0.0 0.00 0.00 0.00 40 1013.3
20260505181114 74 257 0.0 0.0 0.00 0.00 0.00 41 1013.2
20260505180608 74 300 0.0 0.0 0.00 0.00 0.00 42 1013.3
20260505180111 74 281 0.0 0.0 0.00 0.00 0.00 41 1013.2
20260505175611 74 102 0.0 0.0 0.00 0.00 0.00 43 1013.2
20260505175108 74 246 0.0 0.0 0.00 0.00 0.00 40 1013.2
20260505174614 74 248 0.0 0.0 0.00 0.00 0.00 39 1013.4
20260505174108 75 281 0.0 0.0 0.00 0.00 0.00 40 1013.5
20260505173617 75 294 0.0 0.0 0.00 0.00 0.00 42 1013.5
20260505173109 75 26 0.0 0.0 0.00 0.00 0.00 41 1013.4
20260505172611 75 304 0.0 0.0 0.00 0.00 0.00 39 1013.5
20260505172111 75 15 0.0 0.0 0.00 0.00 0.00 40 1013.8
20260505171608 75 40 0.0 0.0 0.00 0.00 0.00 40 1013.7
20260505171108 74 315 0.0 0.0 0.00 0.00 0.00 41 1013.8
20260505170611 75 304 0.0 0.0 0.00 0.00 0.00 44 1013.8
20260505170117 74 31 0.0 0.0 0.00 0.00 0.00 42 1013.9
20260505165617 74 78 0.0 0.0 0.00 0.00 0.00 42 1013.9
20260505165108 74 111 0.0 0.0 0.00 0.00 0.00 44 1013.9
20260505164614 74 303 0.0 0.0 0.00 0.00 0.00 44 1014.0
20260505164108 74 348 0.0 0.0 0.00 0.00 0.00 45 1014.0
20260505163611 74 282 0.0 0.0 0.00 0.00 0.00 44 1014.2
20260505163108 74 238 0.0 0.0 0.00 0.00 0.00 47 1014.1
20260505162617 73 314 0.0 0.0 0.00 0.00 0.00 45 1014.1
20260505162107 73 60 0.0 0.0 0.00 0.00 0.00 48 1014.1
20260505161607 72 196 0.0 0.0 0.00 0.00 0.00 48 1014.1
20260505161112 73 290 0.0 0.0 0.00 0.00 0.00 43 1014.3
20260505160614 73 263 0.0 0.0 0.00 0.00 0.00 44 1014.2
20260505160108 73 288 0.0 0.0 0.00 0.00 0.00 46 1014.2
20260505153117 72 55 0.0 0.0 0.00 0.00 0.00 52 1014.5
20260505152611 72 184 0.0 0.0 0.00 0.00 0.00 55 1014.4
20260505152111 71 215 0.0 0.0 0.00 0.00 0.00 54 1014.5
20260505151610 70 344 0.0 0.0 0.00 0.00 0.00 53 1014.5
20260505151111 70 269 0.0 0.0 0.00 0.00 0.00 53 1014.8
20260505150617 71 291 0.0 0.0 0.00 0.00 0.00 51 1014.7
20260505150114 70 336 0.0 0.0 0.00 0.00 0.00 52 1014.8
20260505140608 68 295 0.0 0.0 0.00 0.00 0.00 58 1014.3
20260505140114 67 294 0.0 0.0 0.00 0.00 0.00 58 1014.5
20260505130108 59 300 0.0 0.0 0.00 0.00 0.00 70 1014.7
20260505124607 55 299 0.0 0.0 0.00 0.00 0.00 76 1014.7
20260505124111 54 298 0.0 0.0 0.00 0.00 0.00 80 1014.8
20260505123610 52 298 0.0 0.0 0.00 0.00 0.00 83 1014.8
20260505123114 51 298 0.0 0.0 0.00 0.00 0.00 85 1014.7
20260505122616 50 298 0.0 0.0 0.00 0.00 0.00 87 1014.4
20260505122108 49 297 0.0 0.0 0.00 0.00 0.00 90 1014.5
20260505121607 48 298 0.0 0.0 0.00 0.00 0.00 89 1014.6
20260505121108 47 297 0.0 0.0 0.00 0.00 0.00 88 1014.6
20260505120607 47 297 0.0 0.0 0.00 0.00 0.00 87 1014.6
20260505120117 47 297 0.0 0.0 0.00 0.00 0.00 86 1014.6
20260505115610 47 297 0.0 0.0 0.00 0.00 0.00 86 1014.5
20260505115108 47 297 0.0 0.0 0.00 0.00 0.00 85 1014.6
20260505114608 46 297 0.0 0.0 0.00 0.00 0.00 85 1014.8
20260505114108 46 297 0.0 0.0 0.00 0.00 0.00 84 1014.8
20260505113613 46 298 0.0 0.0 0.00 0.00 0.00 84 1014.8
20260505113113 46 298 0.0 0.0 0.00 0.00 0.00 83 1014.7
20260505112617 46 297 0.0 0.0 0.00 0.00 0.00 83 1014.7
20260505112110 46 297 0.0 0.0 0.00 0.00 0.00 83 1014.8
20260505111611 47 297 0.0 0.0 0.00 0.00 0.00 82 1014.8
20260505111110 47 297 0.0 0.0 0.00 0.00 0.00 81 1014.7
20260505110608 47 297 0.0 0.0 0.00 0.00 0.00 81 1014.7
20260505110107 47 298 0.0 0.0 0.00 0.00 0.00 81 1014.8
20260505102116 47 297 0.0 0.0 0.00 0.00 0.00 81 1014.3
20260505101607 47 297 0.0 0.0 0.00 0.00 0.00 81 1014.3
20260505101116 47 297 0.0 0.0 0.00 0.00 0.00 81 1014.4
20260505100607 47 297 0.0 0.0 0.00 0.00 0.00 81 1014.4
20260505100110 47 297 0.0 0.0 0.00 0.00 0.00 81 1014.2
20260505095607 47 297 0.0 0.0 0.00 0.00 0.00 81 1014.3
20260505095113 48 297 0.0 0.0 0.00 0.00 0.00 80 1014.3
20260505094611 48 298 0.0 0.0 0.00 0.00 0.00 79 1014.5
20260505094107 48 297 0.0 0.0 0.00 0.00 0.00 78 1014.5
20260505093607 48 297 0.0 0.0 0.00 0.00 0.00 78 1014.6
20260505093107 48 297 0.0 0.0 0.00 0.00 0.00 78 1014.6
20260505092614 48 297 0.0 0.0 0.00 0.00 0.00 78 1014.7
20260505092113 49 297 0.0 0.0 0.00 0.00 0.00 77 1014.7
20260505091607 49 297 0.0 0.0 0.00 0.00 0.00 77 1014.7
20260505091111 49 297 0.0 0.0 0.00 0.00 0.00 76 1014.5
20260505090611 50 297 0.0 0.0 0.00 0.00 0.00 76 1014.5
20260505090110 50 297 0.0 0.0 0.00 0.00 0.00 76 1014.6
20260505085610 50 297 0.0 0.0 0.00 0.00 0.00 75 1014.6
20260505085113 51 297 0.0 0.0 0.00 0.00 0.00 74 1014.6
20260505084607 51 297 0.0 0.0 0.00 0.00 0.00 73 1014.7
20260505084113 51 298 0.0 0.0 0.00 0.00 0.00 72 1014.7
20260505083607 52 297 0.0 0.0 0.00 0.00 0.00 72 1014.8
20260505083110 52 297 0.0 0.0 0.00 0.00 0.00 71 1015.0
20260505082608 53 297 0.0 0.0 0.00 0.00 0.00 70 1014.8
20260505082116 54 297 0.0 0.0 0.00 0.00 0.00 69 1014.8
20260505081607 54 298 0.0 0.0 0.00 0.00 0.00 69 1014.7
20260505081113 55 297 0.0 0.0 0.00 0.00 0.00 68 1014.5
20260505080610 56 298 0.0 0.0 0.00 0.00 0.00 67 1014.6
20260505080107 56 298 0.0 0.0 0.00 0.00 0.00 63 1014.8
20260505075610 57 295 0.0 0.0 0.00 0.00 0.00 65 1014.7
20260505075107 57 295 0.0 0.0 0.00 0.00 0.00 64 1014.7
20260505074610 58 295 0.0 0.0 0.00 0.00 0.00 63 1014.6
20260505074113 58 295 0.0 0.0 0.00 0.00 0.00 58 1014.5
20260505073616 58 310 0.0 0.0 0.00 0.00 0.00 59 1014.6
20260505073107 58 299 0.0 0.0 0.00 0.00 0.00 59 1014.6